Regional Weather Roundup
Issued by NWS

Home | Current Version | Previous Version | Text Only | Print | Product List | Glossary On
Versions: 1 2 3 4 5 6 7 8 9 10 11 12 13 14 15 16 17 18 19 20 21 22 23 24 25 26 27 28 29 30 31 32 33 34 35 36 37 38 39 40 41 42 43 44 45 46 47 48 49 50
000
ASUS43 KDMX 231403
RWRIA

WEATHER ROUNDUP FOR IOWA
NATIONAL WEATHER SERVICE DES MOINES IA
900 AM CDT SAT JUL 23 2016

NOTE: "FAIR" INDICATES FEW OR NO CLOUDS BELOW 12,000 FEET WITH NO
SIGNIFICANT WEATHER AND/OR OBSTRUCTIONS TO VISIBILITY.

* - THESE STATIONS ARE NOT NWS STATIONS...THUS NOT UNDER NWS
QUALITY CONTROL.  THEY ALSO DO NOT REPORT WEATHER SUCH
AS PRECIPITATION OR FOG.

IAZ001>003-012>014-020>022-031>034-043>046-231500-
   NORTHWEST IOWA

CITY           SKY/WX    TMP DP  RH WIND       PRES   REMARKS
CARROLL *      CLOUDY    79  77  94 E8        29.87F HX  83
CHEROKEE *     CLOUDY    77  76  96 CALM      29.89R
DENISON *      CLOUDY    79  72  78 S8        29.83F HX  82
LE MARS *      CLOUDY    79  75  89 SE8       29.85F HX  82
SHELDON *      CLOUDY    77  77 100 SE15G22   29.84R FOG
SIOUX CITY     PTSUNNY   79  75  87 S9        29.82F HX  83
SPENCER        TSTM      77  73  87 SE10      29.86F FOG
STORM LAKE *   CLOUDY    77  75  94 S5        29.90R
$$

IAZ055>058-069>071-079>083-090>094-231500-
   SOUTHWEST IOWA

CITY           SKY/WX    TMP DP  RH WIND       PRES   REMARKS
ATLANTIC *     CLOUDY    79  72  78 S9        29.88R HX  82
CLARINDA *       N/A     81  75  83 MISG      29.91F HX  86
COUNCIL BLFS * PTSUNNY   79  72  78 S9        29.87S HX  82
CRESTON *      PTSUNNY   82  75  78 S12       29.93F HX  89
HARLAN  *      CLOUDY    77  73  88 S10       29.90S
LAMONI         MOSUNNY   81  76  84 S9        29.94R HX  87
RED OAK *      CLOUDY    79  73  83 S6        29.88S HX  82
SHENANDOAH *   CLOUDY    79  73  83 S9        29.88S HX  82
$$

IAZ047>049-059>061-072>074-084-231500-
   CENTRAL IOWA

CITY           SKY/WX    TMP DP  RH WIND       PRES   REMARKS
AMES           CLOUDY    79  79 100 SE3       29.91S HX  84
ANKENY *         N/A    N/A N/A N/A MISG        N/A
BOONE *        CLOUDY    79  77  94 E6        29.90F HX  83
CHARITON *       N/A    N/A N/A N/A MISG        N/A
DES MOINES     CLOUDY    83  76  79 S8        29.90R HX  91
GRINNELL*      PTSUNNY   82  75  80 S6        29.94S HX  89
KNOXVILLE *    MOSUNNY   84  77  79 SW7       29.92R HX  94
MARSHALLTOWN   CLOUDY    80  78  94 SE6       29.92S HX  88
NEWTON *       PTSUNNY   81  79  94 S7        29.92R HX  89
PELLA *        MOSUNNY   84  76  77 S5        29.93S HX  92
PERRY *          N/A     81  79  92 SE5       29.89F HX  90
$$

IAZ004>006-015-016-023>025-035-036-231500-
   NORTH CENTRAL IOWA

CITY           SKY/WX    TMP DP  RH WIND       PRES   REMARKS
ALGONA *       RAIN      75  70  83 S6G20     29.87F
ESTHERVILLE    CLOUDY    75  73  93 S14       29.89R
FORT DODGE *   CLOUDY    75  72  88 SE6       29.89F
MASON CITY     CLOUDY    77  75  93 S7        29.95R
FOREST CITY *  LGT RAIN  72  72 100 SE7         N/A
IOWA FALLS *   CLOUDY    78  75  91 SE7       29.93F HX  81
$$

IAZ007>011-017>019-026>030-037>042-050>054-066-231500-
   NORTHEAST IOWA

CITY           SKY/WX    TMP DP  RH WIND       PRES   REMARKS
CEDAR RAPIDS   SUNNY     82  80  94 E9        29.95R HX  94
CHARLES CITY * CLOUDY    79  79 100 E8        29.95R HX  83
CLINTON *      MOSUNNY   83  78  85 SE6       29.98R HX  93
DECORAH *        N/A     70  70 100 VRB3      29.94F
DUBUQUE        CLOUDY    79  77  94 SE3       29.99R HX  83
MONTICELLO *   CLOUDY    79  77  94 SE6       29.96S HX  83
OELWEIN *      CLOUDY    79  77  94 E9        29.95F HX  83
WATERLOO       CLOUDY    78  76  93 S8        29.91F HX  81
$$

IAZ064-065-067-068-078-231500-
   EAST CENTRAL IOWA

CITY           SKY/WX    TMP DP  RH WIND       PRES   REMARKS
DAVENPORT      MOSUNNY   81  77  88 SE5       29.98R HX  88
IOWA CITY      MOSUNNY   82  78  88 SE8       29.97R HX  91
MT. PLEASANT * CLOUDY    86  82  89 S5        29.97R HX 104
MUSCATINE *    PTSUNNY   82  77  83 VRB6      29.97R HX  91
QUAD CITIES    SUNNY     84  77  79 SE3       29.97R HX  94
$$

IAZ062-063-075>077-085>089-095>099-231500-
   SOUTHEAST IOWA

CITY           SKY/WX    TMP DP  RH WIND       PRES   REMARKS
BURLINGTON     SUNNY     81  77  88 S7        29.97S HX  88
FAIRFIELD *    MOSUNNY   82  77  83 S9        29.96R HX  91
KEOKUK *       SUNNY     82  77  83 S5        29.96S HX  91
CENTERVILLE *    N/A     84  77  79 CALM      29.97R HX  94
OTTUMWA        CLOUDY    84  77  79 S8        29.94S HX  94
WASHINGTON *   MOSUNNY   81  79  94 S7        29.97R HX  89
$$

ABBREVIATIONS USED IN REMARKS
   TC - TEMPERATURES IN CELSIUS
  WCI - WIND CHILL INDEX
   HX - HEAT INDEX
  VSB - VISIBILITY
$$




USA.gov is the U.S. government's official web portal to all federal, state and local government web resources and services.